Regional Weather Roundup
Issued by NWS

Home | Current Version | Previous Version | Text Only | Print | Product List | Glossary On
Versions: 1 2 3 4 5 6 7 8 9 10 11 12 13 14 15 16 17 18 19 20 21 22 23 24 25 26 27 28 29 30 31 32 33 34 35 36 37 38 39 40 41 42 43 44 45 46 47 48 49 50
000
ASUS44 KLIX 241305
RWRLA
LOUISIANA WEATHER ROUNDUP
NATIONAL WEATHER SERVICE NEW ORLEANS LA
800 AM CDT TUE APR 24 2018

NOTE: "FAIR" INDICATES FEW OR NO CLOUDS BELOW 12,000 FEET WITH NO
      SIGNIFICANT WEATHER AND/OR OBSTRUCTIONS TO VISIBILITY.
      SKY/WX - SKY CONDITION AND SIGNIFICANT WEATHER.
      TMP - AIR TEMPERATURE.    DP   - DEWPOINT TEMPERATURE.
      RH  - RELATIVE HUMIDITY.  PRES - PRESSURE.
      HX  - HEAT INDEX.         WCI  - WIND CHILL INDEX.

*  THESE STATIONS ARE NOT NWS OR FAA STATIONS AND ARE NOT UNDER
   NWS QUALITY CONTROL.

LAZ040-048-061>063-065-066-069-241400-
SOUTHEAST LOUISIANA

CITY           SKY/WX    TMP DP  RH WIND       PRES   REMARKS
N.O. INTL ARPT FAIR      64  57  78 W8        30.03R
N.O. LAKEFRONT FAIR      66  57  72 W14       30.02S
N.O. DOWNTOWN* FAIR      66  54  65 VRB3      30.04R
RESERVE*       FAIR      65  58  78 W3        30.04R
SLIDELL        FAIR      60  55  83 CALM      30.01R
BATON ROUGE    FAIR      59  55  87 W8        30.04R
BOOTHVILLE     FAIR      69  62  78 W5        30.02R
BELLE CHASSE   FAIR      64  59  83 CALM      30.03R
BOGALUSA*      PTSUNNY   60  55  82 NW5       30.01S
GALLIANO*      FAIR      63  58  84 NW3       30.03R
NEW ROADS*     FAIR      57  56  95 W5        30.05R
GONZALES*      FAIR      60  56  89 CALM      30.03R
HAMMOND*       FAIR      59  55  88 W6        30.03R
HOUMA*         SUNNY     63  59  88 CALM      30.04R
PORT FOURCHON* SUNNY     68  61  77 NW6       30.03R

$$

LAZ041-044-053-054-241400-
SOUTHWEST LOUISIANA

CITY           SKY/WX    TMP DP  RH WIND       PRES   REMARKS
LAKE CHARLES   FAIR      61  57  87 NW3       30.06R
LAFAYETTE      FAIR      62  56  80 NW7       30.05R
PATTERSON      FAIR      62  58  86 NW5       30.06R
SALT POINT       N/A    N/A N/A N/A N3        30.03R
NEW IBERIA     FAIR      61  55  81 W5        30.06R
CHENAULT AIRPK SUNNY     61  57  88 VRB5      30.07R

$$

LAZ027-028-241400-
CENTRAL LOUISIANA

CITY           SKY/WX    TMP DP  RH WIND       PRES   REMARKS
FORT POLK      NOT AVBL
ALEXANDRIA INT FAIR      56  55  97 MISG      30.03R
ALEXANDRIA     FAIR      57  56  96 VRB3      30.04R

$$

LAZ001-002-241400-
NORTHWEST LOUISIANA

CITY           SKY/WX    TMP DP  RH WIND       PRES   REMARKS
SHREVEPORT     FAIR      58  56  93 NW6       30.05R
BARKSDALE AFB  FAIR      57  57 100 N3        30.04R
DTN SHREVEPORT FAIR      59  54  83 NW6       30.05R

$$

LAZ014-016-241400-
NORTHEAST LOUISIANA

CITY           SKY/WX    TMP DP  RH WIND       PRES   REMARKS
MONROE         FAIR      59  57  93 CALM      30.04R
TALLULAH       FAIR      60  57  89 NW5       30.03R

$$




USA.gov is the U.S. government's official web portal to all federal, state and local government web resources and services.